STARLINK-1948 (46798 NORAD) Tracking and Keplerian Element Data

This shows tracking and keplerian element data for the satellite.

Feedback or suggestion? Click here.




ElementValue
Catalog46798
NameSTARLINK-1948
Epoch Orbit179
Epoch Day17.91667824
Epoch Year2021
RAAN121.7689
Inclination53.0552
Eccentricity0.0001318
Argument of Perigee80.0676
Mean Anonmoly339.4624
Mean Motion15.06400528
Decay Rate-0.0003497
L11 46798U 20074BM 21017.91667824 -.00034970 00000-0 -23403-2 0 9990
L22 46798 53.0552 121.7689 0001318 80.0676 339.4624 15.06400528 1799

Live tracking and technical data element details for STARLINK-1948 (NORAD 46798). STARLINK-1948 can be tracked NOW for your location showing map with azimuth and elevation plus other details from your city location.

Track the satellite on the map from your city or location and see movement details for azimuth, elevation, latitude, longitude, range, height, and movement on the map or in text.







IsCatalogInMostPopularTable: catalog: 46798, numindb: 30
Update: records affected: 1



GetName: 46798 STARLINK-1948

Hit Count: updated at: Mon, 18 Jan 2021 16:27:21 GMT